KC0VVH Weather Reports


time (UTC)temp
C
wind
direction
speed
KPH
gust
KPH
rain 1hr
cm
rain 24hr
cm
rain mn
cm
humidity
%
barometer
mb
20260903102712 21 201 3.2 12.9 0.00 0.71 0.00 43 1016.5
20260903101811 21 202 3.2 11.3 0.00 0.71 0.00 44 1016.5
20260903100911 21 198 4.8 12.9 0.00 0.71 0.00 44 1016.5
20260903100033 21 183 6.4 20.9 0.00 0.71 0.00 43 1016.5
20260903095412 21 189 3.2 20.9 0.00 0.71 0.00 43 1016.5
20260903094512 21 222 3.2 11.3 0.00 0.71 0.00 44 1016.5
20260903093611 21 228 0.0 6.4 0.00 0.71 0.00 44 1016.5
20260903092711 21 201 1.6 9.7 0.00 0.71 0.00 45 1016.5
20260903091833 21 191 1.6 9.7 0.00 0.71 0.00 44 1016.5
20260903090912 22 208 3.2 12.9 0.00 0.71 0.00 43 1016.5
20260903090011 22 196 4.8 12.9 0.00 0.71 0.00 44 1016.5
20260903085433 22 194 1.6 11.3 0.00 0.71 0.00 44 1016.5
20260903084512 22 193 4.8 14.5 0.00 0.71 0.00 44 1016.5
20260903083612 22 192 3.2 17.7 0.00 0.71 0.00 44 1016.5
20260903082733 22 217 3.2 14.5 0.00 0.71 0.00 45 1016.5
20260903081812 22 202 4.8 11.3 0.00 0.71 0.00 45 1016.5
20260903080912 22 194 4.8 14.5 0.00 0.71 0.00 45 1016.5
20260903080012 22 194 0.0 6.4 0.00 0.71 0.00 45 1016.5
20260903075412 22 198 3.2 22.5 0.00 0.71 0.00 44 1016.5
20260903074512 22 199 4.8 22.5 0.00 0.71 0.00 45 1016.5
20260903073611 22 199 3.2 9.7 0.00 0.71 0.00 45 1016.5
20260903072712 22 201 4.8 11.3 0.00 0.71 0.00 45 1016.5
20260903071812 22 196 3.2 11.3 0.00 0.71 0.00 45 1016.5
20260903070912 22 203 1.6 12.9 0.00 0.71 0.00 45 1016.5
20260903070012 22 209 1.6 12.9 0.00 0.71 0.00 45 1016.5
20260903065411 22 199 3.2 12.9 0.00 0.71 0.00 45 1016.5
20260903064512 22 198 6.4 14.5 0.00 0.71 0.00 44 1016.5
20260903063612 23 199 8.0 25.7 0.00 0.71 0.00 44 1016.5
20260903062712 23 199 8.0 17.7 0.00 0.71 0.00 45 1016.5
20260903061812 23 198 8.0 14.5 0.00 0.71 0.00 45 1016.5
20260903060932 23 195 6.4 14.5 0.00 0.71 0.00 44 1016.5
20260903060033 23 195 3.2 14.5 0.00 0.71 0.00 44 1016.5
20260903055412 23 200 3.2 12.9 0.00 0.71 0.71 43 1016.5
20260903054512 23 201 6.4 14.5 0.00 0.71 0.71 44 1016.5
20260903053612 23 201 8.0 14.5 0.00 0.71 0.71 44 1016.5
20260903052712 23 193 3.2 14.5 0.00 0.71 0.71 44 1016.5
20260903051812 23 182 4.8 16.1 0.00 0.71 0.71 44 1016.5
20260903050912 23 185 3.2 16.1 0.00 0.71 0.71 45 1016.5
20260903050012 23 188 3.2 14.5 0.00 0.71 0.71 45 1016.5
20260903045411 23 189 3.2 14.5 0.00 0.71 0.71 44 1016.5
20260903044533 23 189 3.2 12.9 0.00 0.71 0.71 45 1016.5
20260903043612 23 197 4.8 12.9 0.00 0.71 0.71 43 1016.5
20260903042712 23 201 3.2 14.5 0.00 0.71 0.71 44 1016.5
20260903041812 23 188 6.4 25.7 0.00 0.71 0.71 44 1016.5
20260903040911 23 184 4.8 17.7 0.00 0.71 0.71 44 1016.5
20260903040012 23 190 3.2 19.3 0.00 0.71 0.71 44 1016.5
20260903035412 23 193 3.2 16.1 0.00 0.71 0.71 45 1016.5
20260903034532 23 193 8.0 17.7 0.00 0.71 0.71 45 1016.5
20260903033612 23 181 6.4 19.3 0.00 0.71 0.71 45 1016.5
20260903032733 23 185 8.0 17.7 0.00 0.71 0.71 45 1016.5
20260903031812 23 211 3.2 17.7 0.00 0.71 0.71 46 1016.5
20260903030912 23 212 4.8 12.9 0.00 0.71 0.71 46 1016.5
20260903030012 23 202 8.0 20.9 0.00 0.71 0.71 47 1016.5
20260903025412 23 188 8.0 19.3 0.00 0.71 0.71 46 1016.5
20260903024512 23 185 11.3 24.1 0.00 0.71 0.71 47 1016.5
20260903023612 23 184 9.7 19.3 0.08 0.71 0.71 48 1016.5
20260903022711 22 181 9.7 19.3 0.08 0.71 0.71 50 1016.5
20260903021812 21 197 3.2 12.9 0.08 0.71 0.71 59 1016.5
20260903020912 21 206 6.4 17.7 0.08 0.71 0.71 62 1016.5
20260903020012 21 206 6.4 16.1 0.08 0.71 0.71 66 1016.5
20260903015412 22 189 4.8 14.5 0.08 0.71 0.71 66 1016.5
20260903014512 24 0 0.0 0.0 0.08 0.71 0.71 62 1016.5
20260903013612 25 0 0.0 0.0 0.00 0.64 0.64 48 1016.5
20260903012712 25 0 0.0 1.6 0.00 0.64 0.64 42 1016.5
20260903011811 25 0 0.0 0.0 0.00 0.64 0.64 46 1016.5
20260903010912 25 0 0.0 0.0 0.00 0.64 0.64 45 1016.5
20260903010012 25 0 0.0 0.0 0.00 0.64 0.64 44 1016.5
20260903005412 25 0 0.0 0.0 0.00 0.64 0.64 42 1016.5
20260903004533 25 0 0.0 0.0 0.00 0.64 0.64 43 1016.5
20260903003612 26 184 0.0 8.0 0.00 0.64 0.64 44 1016.5
20260903002712 26 163 1.6 8.0 0.00 0.64 0.64 42 1016.5
20260903001833 27 104 1.6 8.0 0.00 0.64 0.64 39 1016.5
20260903000912 27 0 0.0 0.0 0.00 0.64 0.64 38 1016.5
20260903000012 27 0 0.0 0.0 0.00 0.64 0.64 37 1016.5
20260902235412 27 0 0.0 0.0 0.00 0.64 0.64 39 1016.5
20260902234512 26 0 0.0 0.0 0.00 0.64 0.64 41 1016.5
20260902233612 26 0 0.0 0.0 0.00 0.64 0.64 41 1016.5
20260902232712 26 64 0.0 6.4 0.00 0.64 0.64 41 1016.5
20260902231812 26 0 0.0 1.6 0.00 0.64 0.64 42 1016.5
20260902230933 26 63 0.0 6.4 0.00 0.64 0.64 42 1016.5
20260902230012 26 63 0.0 6.4 0.00 0.64 0.64 42 1016.5
20260902225412 26 0 0.0 0.0 0.00 0.66 0.64 42 1016.5
20260902224512 26 63 1.6 9.7 0.00 0.66 0.64 41 1016.5
20260902223633 26 63 0.0 8.0 0.00 0.66 0.64 42 1016.5
20260902222712 26 0 0.0 1.6 0.00 0.66 0.64 41 1016.5
20260902221812 26 63 0.0 4.8 0.00 0.66 0.64 41 1016.5
20260902220912 25 63 0.0 6.4 0.00 0.66 0.64 42 1016.5
20260902220012 25 65 1.6 9.7 0.00 0.66 0.64 44 1016.5
20260902215412 25 66 1.6 9.7 0.00 0.69 0.64 45 1016.5
20260902214533 24 67 4.8 17.7 0.00 0.76 0.64 45 1016.5
20260902213612 24 63 4.8 19.3 0.00 0.99 0.64 46 1016.5
20260902212712 24 61 3.2 11.3 0.00 1.45 0.64 50 1016.5
20260902211833 24 58 4.8 19.3 0.00 1.85 0.64 53 1016.5
20260902210933 23 52 1.6 11.3 0.00 1.85 0.64 49 1016.5
20260902210033 23 252 0.0 4.8 0.00 1.85 0.64 48 1016.5
20260902205412 23 248 3.2 11.3 0.00 1.85 0.64 51 1016.5
20260902204533 22 206 3.2 11.3 0.00 1.85 0.64 56 1016.5
20260902203612 21 192 1.6 9.7 0.00 1.85 0.64 58 1016.5
20260902202733 21 191 1.6 6.4 0.00 1.85 0.64 59 1016.5
20260902201812 21 0 0.0 0.0 0.00 1.85 0.64 62 1016.5
20260902200912 21 191 0.0 3.2 0.00 1.85 0.64 63 1016.5
20260902200012 20 0 0.0 0.0 0.00 1.85 0.64 69 1016.5
20260902195412 20 0 0.0 0.0 0.00 1.85 0.64 75 1016.5
20260902194512 19 198 0.0 4.8 0.18 1.85 0.64 74 1016.5
20260902193612 19 0 0.0 0.0 0.51 1.85 0.64 77 1016.5
20260902192712 18 0 0.0 0.0 0.51 1.85 0.64 73 1016.5
20260902191812 18 0 0.0 0.0 0.51 1.85 0.64 73 1016.5
20260902190933 18 0 0.0 0.0 0.53 1.85 0.64 72 1016.5
20260902190033 18 0 0.0 1.6 0.53 1.85 0.64 73 1016.5
20260902185412 18 326 0.0 11.3 0.53 1.85 0.64 71 1016.5
20260902184512 21 326 6.4 29.0 0.36 1.68 0.51 63 1016.5
20260902183633 22 352 4.8 17.7 0.03 1.35 0.13 56 1016.5
20260902182712 21 347 4.8 17.7 0.05 1.35 0.13 59 1016.5
20260902181833 21 316 1.6 14.5 0.13 1.35 0.13 64 1016.5
20260902180912 21 335 3.2 12.9 0.10 1.32 0.10 59 1016.5
20260902180012 21 357 4.8 16.1 0.10 1.32 0.10 59 1016.5
20260902175412 21 347 4.8 16.1 0.10 1.32 0.10 63 1016.5
20260902174512 21 356 3.2 16.1 0.10 1.32 0.10 68 1016.5
20260902173612 21 339 1.6 14.5 0.10 1.32 0.10 64 1016.5
20260902172712 22 258 4.8 20.9 0.08 1.30 0.08 57 1016.5
20260902171812 24 311 4.8 14.5 0.00 1.22 0.00 51 1016.5
20260902170912 25 22 3.2 9.7 0.00 1.22 0.00 49 1016.5
20260902170012 25 8 4.8 9.7 0.00 1.22 0.00 44 1016.5
20260902165412 26 15 4.8 11.3 0.00 1.22 0.00 45 1016.5
20260902164512 26 48 4.8 17.7 0.00 1.22 0.00 45 1016.5
20260902163612 26 68 4.8 17.7 0.00 1.22 0.00 41 1016.5
20260902162712 26 337 0.0 6.4 0.00 1.22 0.00 41 1016.5
20260902161812 25 82 1.6 8.0 0.00 1.22 0.00 44 1016.5
20260902160912 24 82 4.8 11.3 0.00 1.22 0.00 44 1016.5
20260902160012 23 81 1.6 8.0 0.00 1.22 0.00 47 1016.5
20260902155412 23 66 3.2 8.0 0.00 1.22 0.00 49 1016.5
20260902154512 23 62 6.4 12.9 0.00 1.22 0.00 50 1016.5
20260902153612 22 65 6.4 12.9 0.00 1.22 0.00 51 1016.5
20260902152712 22 47 3.2 12.9 0.00 1.22 0.00 50 1016.5
20260902151812 22 45 3.2 9.7 0.00 1.22 0.00 53 1016.5
20260902150912 21 40 3.2 16.1 0.00 1.22 0.00 52 1016.5
20260902150012 20 223 3.2 9.7 0.00 1.22 0.00 53 1016.5
20260902145412 20 222 4.8 11.3 0.00 1.22 0.00 54 1016.5
20260902144512 20 217 3.2 11.3 0.00 1.22 0.00 54 1016.5
20260902143612 19 217 1.6 12.9 0.00 1.22 0.00 55 1016.5
20260902142712 18 179 3.2 12.9 0.00 1.22 0.00 55 1016.5
20260902141812 18 215 0.0 4.8 0.00 1.22 0.00 56 1016.5
20260902140912 18 215 0.0 3.2 0.00 1.22 0.00 56 1016.5
20260902140012 18 215 0.0 4.8 0.00 1.22 0.00 55 1016.5
20260902135412 18 215 1.6 8.0 0.00 1.22 0.00 55 1016.5
20260902134512 18 164 1.6 9.7 0.00 1.22 0.00 56 1016.5
20260902133612 17 106 1.6 9.7 0.00 1.22 0.00 57 1016.5
20260902132712 17 171 1.6 9.7 0.00 1.22 0.00 58 1016.5
20260902131812 16 144 1.6 8.0 0.00 1.22 0.00 61 1016.5
20260902130912 15 149 0.0 1.6 0.00 1.22 0.00 65 1016.5
20260902130012 14 0 0.0 0.0 0.00 1.22 0.00 72 1016.5
20260902125412 14 0 0.0 0.0 0.00 1.22 0.00 72 1016.5
20260902124512 15 0 0.0 0.0 0.00 1.22 0.00 70 1016.5
20260902123612 15 0 0.0 0.0 0.00 1.22 0.00 69 1016.5
20260902122712 15 0 0.0 0.0 0.00 1.22 0.00 68 1016.5
20260902121833 15 0 0.0 1.6 0.00 1.22 0.00 67 1016.5
20260902120933 15 0 0.0 0.0 0.00 1.22 0.00 68 1016.5
20260902120033 15 0 0.0 0.0 0.00 1.22 0.00 68 1016.5
20260902115412 16 92 0.0 4.8 0.00 1.22 0.00 66 1016.5
20260902114512 16 92 0.0 3.2 0.00 1.22 0.00 64 1016.5
20260902113612 16 92 0.0 3.2 0.00 1.22 0.00 64 1016.5
20260902112712 16 0 0.0 1.6 0.00 1.22 0.00 63 1016.5
20260902111812 16 0 0.0 1.6 0.00 1.22 0.00 65 1016.5
20260902110933 16 0 0.0 0.0 0.00 1.22 0.00 66 1016.5
20260902110012 16 92 0.0 4.8 0.00 1.22 0.00 65 1016.5
20260902105433 16 92 0.0 4.8 0.00 1.22 0.00 67 1016.5
20260902104512 16 92 0.0 6.4 0.00 1.22 0.00 66 1016.5
20260902103612 16 0 0.0 0.0 0.00 1.22 0.00 66 1016.5